Weather History for Point Mugu, CA

Change the Weather History Date:

Wednesday, September 12, 2012

  Actual Average Record
Temperature  
Mean Temperature 68 °F -  
Max Temperature 73 °F 71 °F 81 °F (2000)
Min Temperature 64 °F 57 °F 51 °F (1999)
Cooling Degree Days 4    
Growing Degree Days 18 (Base 50)    
Moisture  
Dew Point 64 °F    
Average Humidity 87    
Maximum Humidity 100    
Minimum Humidity 57    
Precipitation  
Precipitation 0.00 in - - ()
Sea Level Pressure  
Sea Level Pressure 30.00 in    
Wind  
Wind Speed 5 mph (West)    
Max Wind Speed 13 mph    
Max Gust Speed -    
Visibility 6 miles    
Events      
Averages and records for this station are not official NWS values.
T = Trace of Precipitation, MM = Missing Value Source: NWS Daily Summary

Daily Weather History Graph

Daily Weather History Graph

Search for Another Location

Airport:

Trip Planner

Search our weather history database for the weather conditions in past years. The results will help you decide how hot, cold, wet, or windy it might be!

Date:

Astronomy

Sep. 12, 2012 Rise Set
Actual Time 6:38 AM PDT 7:06 PM PDT
Civil Twilight 6:12 AM PDT 7:31 PM PDT
Nautical Twilight 5:43 AM PDT 8:01 PM PDT
Astronomical Twilight 5:13 AM PDT 8:31 PM PDT
Moon 3:07 AM PDT (9/12) 4:51 PM PDT (9/12)
Length of Visible Light 13h 18m
Length of Day
12h 28m
Waning Crescent, 13% of the Moon is Illuminated
Sep 12
Waning Crescent
Sep 15
New
Sep 22
First Quarter
Sep 29
Full
Oct 8
Last Quarter

Hourly Weather History & Observations

Time (PDT) Temp. Dew Point Humidity Pressure Visibility Wind Dir Wind Speed Gust Speed Precip Events Conditions
12:54 AM 66.9 °F - N/A% 29.99 in 8.0 mi Calm Calm - N/A   Haze
1:20 AM 66.2 °F - N/A% 29.98 in 8.0 mi SW 3.5 mph - N/A   Haze
1:37 AM 66.2 °F - N/A% 29.98 in 8.0 mi Calm Calm - N/A   Haze
1:54 AM 66.9 °F - N/A% 29.99 in 8.0 mi Calm Calm - N/A   Haze
2:54 AM 66.0 °F - N/A% 29.98 in 7.0 mi SSE 3.5 mph - N/A   Haze
3:54 AM 66.0 °F - N/A% 29.98 in 6.0 mi South 3.5 mph - N/A   Haze
4:54 AM 66.0 °F - N/A% 29.99 in 8.0 mi SSW 4.6 mph - N/A   Haze
5:54 AM 66.0 °F - N/A% 30.00 in 6.0 mi SW 3.5 mph - N/A   Haze
5:59 AM 66.2 °F 64.4 °F 94% 29.99 in 3.0 mi SSW 4.6 mph - N/A   Overcast
6:54 AM 66.0 °F 64.2 °F 94% 30.01 in 2.0 mi SW 3.5 mph - N/A   Overcast
6:57 AM 66.2 °F 64.4 °F 94% 30.01 in 2.0 mi SW 4.6 mph - N/A   Overcast
7:54 AM 66.0 °F 64.8 °F 96% 30.04 in 2.0 mi West 3.5 mph - N/A   Overcast
8:54 AM 66.0 °F 64.8 °F 96% 30.04 in 2.0 mi WSW 4.6 mph - N/A   Overcast
9:39 AM 66.2 °F - N/A% 30.04 in - West 5.8 mph - N/A   Mist
9:54 AM 66.0 °F - N/A% 30.05 in - WSW 4.6 mph - N/A   Mist
9:55 AM 68.0 °F 62.6 °F 83% 30.05 in 3.0 mi WSW 4.6 mph - N/A   Overcast
10:55 AM 68.0 °F 64.4 °F 88% 30.03 in 4.0 mi WSW 8.1 mph - N/A   Overcast
11:54 AM 70.0 °F 64.4 °F 82% 30.03 in 4.0 mi Variable 6.9 mph - N/A   Haze
12:54 PM 72.0 °F 57.0 °F 59% 30.02 in 5.0 mi West 9.2 mph - N/A   Haze
1:01 PM 71.6 °F 57.2 °F 60% 30.01 in 10.0 mi West 9.2 mph - N/A   Haze
1:36 PM 73.4 °F 57.2 °F 57% 30.00 in 5.0 mi West 11.5 mph - N/A   Haze
1:54 PM 73.0 °F 65.8 °F 78% 30.00 in 7.0 mi West 11.5 mph - N/A   Mostly Cloudy
2:54 PM 72.0 °F 64.6 °F 77% 29.98 in 7.0 mi West 11.5 mph - N/A   Mostly Cloudy
3:10 PM 71.6 °F 64.4 °F 78% 29.97 in 7.0 mi West 10.4 mph - N/A   Scattered Clouds
3:54 PM 72.0 °F 64.4 °F 77% 29.97 in 7.0 mi West 10.4 mph - N/A   Scattered Clouds
4:54 PM 71.1 °F 64.9 °F 81% 29.96 in 7.0 mi West 12.7 mph - N/A   Scattered Clouds
5:54 PM 70.0 °F 64.9 °F 84% 29.96 in 7.0 mi West 9.2 mph - N/A   Scattered Clouds
6:51 PM 66.2 °F 64.4 °F 94% 29.96 in 7.0 mi WNW 6.9 mph - N/A   Mostly Cloudy
6:54 PM 66.9 °F 64.9 °F 93% 29.97 in 7.0 mi WNW 8.1 mph - N/A   Mostly Cloudy
7:08 PM 66.2 °F 64.4 °F 94% 29.96 in 7.0 mi WNW 9.2 mph - N/A   Mostly Cloudy
7:54 PM 64.9 °F 64.9 °F 100% 29.98 in 7.0 mi NW 6.9 mph - N/A   Overcast
8:54 PM 64.9 °F 64.9 °F 100% 30.00 in 7.0 mi WNW 9.2 mph - N/A   Overcast
9:54 PM 64.9 °F 64.0 °F 97% 30.01 in 7.0 mi WNW 6.9 mph - N/A   Overcast
10:52 PM 64.4 °F 64.4 °F 100% 30.01 in 7.0 mi WNW 5.8 mph - N/A   Overcast
10:54 PM 64.0 °F 64.0 °F 100% 30.01 in 7.0 mi WNW 5.8 mph - N/A   Overcast
11:54 PM 64.0 °F 64.0 °F 100% 30.01 in 5.0 mi West 4.6 mph - N/A   Overcast